Medford, OR

11:55 PM PDT on April 23, 2018 (GMT -0700)
Rogue Valley International-Medford

Weather History for KMFR - July, 2013

Change the Weather History Date:

Saturday, July 13, 2013

  Actual Average Record
Temperature  
Mean Temperature 74 °F 74 °F  
Max Temperature 91 °F 91 °F 107 °F (1987)
Min Temperature 56 °F 57 °F 43 °F (1993)
Degree Days  
Heating Degree Days 0 0  
Month to date heating degree days 0 1  
Since 1 June heating degree days 35 55  
Since 1 July heating degree days 0 1  
Cooling Degree Days 9 9  
Month to date cooling degree days 174 101  
Year to date cooling degree days 355 247  
Since 1 June cooling degree days 320 209  
Growing Degree Days 24 (Base 50)    
Moisture  
Dew Point 45 °F    
Average Humidity 41    
Maximum Humidity 62    
Minimum Humidity 19    
Precipitation  
Precipitation 0.00 in 0.01 in 1.07 in (1966)
Month to date precipitation 0.00 0.14  
Year to date precipitation 4.13 9.60  
Snow  
Snow 0.00 in 0.00 in - ()
Month to date snowfall 0.0 0.0  
Since 1 July snowfall 0.0 0.0  
Snow Depth 0.00 in    
Sea Level Pressure  
Sea Level Pressure 29.97 in    
Wind  
Wind Speed 4 mph (NW)    
Max Wind Speed 16 mph    
Max Gust Speed 20 mph    
Visibility 10 miles    
Events      
T = Trace of Precipitation, MM = Missing Value Source: NWS Daily Summary

Daily Weather History Graph

Daily Weather History Graph

Search for Another Location

Airport or City:

Astronomy

Jul. 13, 2013 Rise Set
Actual Time 5:46 AM PDT 8:47 PM PDT
Civil Twilight 5:12 AM PDT 9:21 PM PDT
Nautical Twilight 4:29 AM PDT 10:04 PM PDT
Astronomical Twilight 3:39 AM PDT 10:54 PM PDT
Moon 11:15 AM PDT (7/13) 11:22 PM PDT (7/13)
Length of Visible Light 16h 08m
Length of Day
15h 00m
Waxing Crescent, 26% of the Moon is Illuminated
Jul 13
Waxing Crescent
Jul 15
First Quarter
Jul 22
Full
Jul 29
Last Quarter
Aug 6
New

Hourly Weather History & Observations

Time (PDT) Temp. Dew Point Humidity Pressure Visibility Wind Dir Wind Speed Gust Speed Precip Events Conditions
12:53 AM 66.0 °F 45.0 °F 47% 29.99 in 10.0 mi Calm Calm - N/A   Clear
1:53 AM 64.9 °F 46.0 °F 50% 30.00 in 10.0 mi Calm Calm - N/A   Clear
2:53 AM 63.0 °F 45.0 °F 52% 30.00 in 10.0 mi Calm Calm - N/A   Clear
3:53 AM 61.0 °F 45.0 °F 56% 30.01 in 10.0 mi NW 3.5 mph - N/A   Clear
4:53 AM 57.9 °F 44.1 °F 60% 30.01 in 10.0 mi Calm Calm - N/A   Clear
5:53 AM 57.9 °F 45.0 °F 62% 30.02 in 10.0 mi Calm Calm - N/A   Clear
6:53 AM 57.9 °F 45.0 °F 62% 30.04 in 10.0 mi Calm Calm - N/A   Clear
7:53 AM 60.1 °F 44.1 °F 55% 30.04 in 10.0 mi Calm Calm - N/A   Clear
8:53 AM 64.9 °F 44.1 °F 47% 30.04 in 10.0 mi Calm Calm - N/A   Clear
9:53 AM 68.0 °F 45.0 °F 43% 30.02 in 10.0 mi Calm Calm - N/A   Clear
10:53 AM 72.0 °F 45.0 °F 38% 30.00 in 10.0 mi Variable 3.5 mph - N/A   Clear
11:53 AM 77.0 °F 45.0 °F 32% 29.97 in 10.0 mi Calm Calm - N/A   Clear
12:53 PM 81.0 °F 44.1 °F 27% 29.94 in 10.0 mi West 6.9 mph - N/A   Clear
1:53 PM 84.0 °F 45.0 °F 25% 29.92 in 10.0 mi NNW 5.8 mph - N/A   Clear
2:53 PM 88.0 °F 45.0 °F 22% 29.90 in 10.0 mi NNW 8.1 mph - N/A   Clear
3:53 PM 89.1 °F 44.1 °F 21% 29.89 in 10.0 mi WNW 9.2 mph - N/A   Clear
4:53 PM 89.1 °F 45.0 °F 22% 29.88 in 10.0 mi WNW 11.5 mph - N/A   Clear
5:53 PM 90.0 °F 44.1 °F 20% 29.88 in 10.0 mi West 13.8 mph - N/A   Clear
6:53 PM 89.1 °F 43.0 °F 20% 29.89 in 10.0 mi NW 9.2 mph - N/A   Clear
7:53 PM 86.0 °F 46.0 °F 25% 29.91 in 10.0 mi North 12.7 mph - N/A   Clear
8:53 PM 80.1 °F 45.0 °F 29% 29.93 in 10.0 mi NNW 5.8 mph - N/A   Clear
9:53 PM 75.0 °F 44.1 °F 33% 29.96 in 10.0 mi NE 3.5 mph - N/A   Clear
10:53 PM 73.0 °F 44.1 °F 35% 29.98 in 10.0 mi Calm Calm - N/A   Clear
11:53 PM 71.1 °F 46.0 °F 41% 29.98 in 10.0 mi Calm Calm - N/A   Clear